❰ Current Conditions

Flood Watch

FLOOD WATCH REMAINS IN EFFECT FROM LATE TONIGHT THROUGH SATURDAY EVENING

Flood Watch issued July 12 at 2:54PM EDT until July 13 at 8:00PM EDT by NWS Boston/Norton MA

* WHAT...Flooding caused by excessive rainfall continues to be possible.

* WHERE...Portions of northern Connecticut, including the following areas, Hartford CT, Tolland CT and Windham CT, Massachusetts, including the following areas, Central Middlesex MA, Eastern Essex MA, Eastern Franklin MA, Eastern Hampden MA, Eastern Hampshire MA, Eastern Norfolk MA, Eastern Plymouth MA, Northern Bristol MA, Northern Middlesex MA, Northern Worcester MA, Southeast Middlesex MA, Southern Bristol MA, Southern Plymouth MA, Southern Worcester MA, Suffolk MA, Western Essex MA, Western Franklin MA, Western Hampden MA, Western Hampshire MA, Western Norfolk MA and Western Plymouth MA, and Rhode Island, including the following areas, Bristol RI, Eastern Kent RI, Newport RI, Northwest Providence RI, Southeast Providence RI, Washington RI and Western Kent RI.

* WHEN...From late tonight through Saturday evening.

* IMPACTS...Excessive runoff may result in flooding of rivers, creeks, streams, and other low-lying and flood-prone locations. Flooding may occur in poor drainage and urban areas.

* ADDITIONAL DETAILS... - http://www.weather.gov/safety/flood

* INSTRUCTIONS...You should monitor later forecasts and be alert for possible Flood Warnings. Those living in areas prone to flooding should be prepared to take action should flooding develop.

Expires: July 13 at 5:00 AM EDT
NWS Regional Weather Roundup - New England Area
REGIONAL WEATHER ROUNDUP
NATIONAL WEATHER SERVICE BOSTON/NORTON MA
700 PM EDT FRI JUL 12 2024

NOTE:  "FAIR" INDICATES FEW OR NO CLOUDS BELOW 12,000 FEET WITH NO
SIGNIFICANT WEATHER AND/OR OBSTRUCTIONS TO VISIBILITY.

MAZALL-130000-
EASTERN MASSACHUSETTS

CITY           SKY/WX    TMP DP  RH WIND       PRES   REMARKS
BOSTON         PTSUNNY   83  72  69 SW20G30   30.15R
BEVERLY        SUNNY     84  72  67 S10G20    30.13R
LAWRENCE       PTSUNNY   85  71  63 SW9       30.14R HX  90
BEDFORD        PTSUNNY   83  71  67 SW13G21   30.13R
NORWOOD        CLOUDY    83  77  82 S8G17     30.16R HX  92
MARSHFIELD     PTSUNNY   82  73  74 SW12G22   30.16S
PLYMOUTH       PTSUNNY   82  74  76 SW13G26   30.18R
TAUNTON        MOSUNNY   83  74  74 SW12G20   30.17R
NEW BEDFORD    CLOUDY    81  77  88 SW12G21   30.18R


MAZALL-130000-
CAPE COD AND THE ISLANDS

CITY           SKY/WX    TMP DP  RH WIND       PRES   REMARKS
FALMOUTH       PTSUNNY   79  75  89 SW18G25   30.20S
HYANNIS        CLOUDY    77  75  93 SW13G25   30.19R
CHATHAM        CLOUDY    78  75  90 SW10G23   30.22R
PROVINCETOWN   MOSUNNY   77  75  93 SW18G24   30.19R
NANTUCKET      CLOUDY    75  74  96 S13       30.22S
MARTHAS VNYRD  CLOUDY    76  75  97 SW14      30.21R


MAZALL-130000-
CENTRAL AND WESTERN MASSACHUSETTS

CITY           SKY/WX    TMP DP  RH WIND       PRES   REMARKS
WORCESTER      MOSUNNY   80  71  74 S10       30.19R
FITCHBURG      CLOUDY    84  72  67 S9        30.15R
ORANGE           N/A     83  71  67 S10       30.15R
SPRINGFIELD    PTSUNNY   84  72  67 S9        30.11R
WESTFIELD      MOSUNNY   83  73  72 S9        30.13R
NORTH ADAMS    PTSUNNY   81  71  71 CALM      30.15R
PITTSFIELD     MOSUNNY   81  68  64 W6        30.17R


RIZALL-130000-
RHODE ISLAND

CITY           SKY/WX    TMP DP  RH WIND       PRES   REMARKS
PROVIDENCE     PTSUNNY   80  75  84 SW15      30.18R
NEWPORT        PTSUNNY   76  73  91 SW10G20   30.19S
BLOCK ISLAND   CLOUDY    74  72  93 SW13        N/A
SMITHFIELD     CLOUDY    77  77 100 SW7       30.19R
WESTERLY       LGT RAIN  77  72  84 SW9       30.19R


CTZALL-130000-
CONNECTICUT

CITY           SKY/WX    TMP DP  RH WIND       PRES   REMARKS
BRADLEY INTL   PTSUNNY   85  71  63 S14       30.14R HX  90
HARTFORD       MOSUNNY   82  74  76 S8        30.14R
PLAINVILLE     PTCLDY    82  75  79 S10       30.15R
BRIDGEPORT     CLOUDY    80  73  79 S7        30.16R
DANBURY        PTSUNNY   82  73  74 S9        30.18R
GROTON         PTSUNNY   77  75  93 SW8       30.17S
NEW HAVEN      PTSUNNY   82  76  81 S5        30.17R
CHESTER        MOSUNNY   81  77  89 S6        30.19S
MERIDEN        MOSUNNY   80  71  74 S9        30.16R
WILLIMANTIC    CLOUDY    78  75  90 S6        30.18R
OXFORD         CLOUDY    79  74  84 SE8       30.19R


MEZ002-015-021-024-NHZ003-005-008-011-012-014-VTZ005-008-130000-
NORTHERN NEW ENGLAND

CITY           SKY/WX    TMP DP  RH WIND       PRES   REMARKS
PORTLAND ME    MOSUNNY   81  70  69 S8        30.09S
BANGOR ME      PTSUNNY   81  72  74 CALM      30.09R
CONCORD NH     PTSUNNY   86  68  54 SW7       30.11R
MANCHESTER NH  MOSUNNY   88  69  53 S14       30.10R HX  92
NASHUA NH      MOSUNNY   86  74  67 S5        30.13R HX  94
PORTSMOUTH NH  MOSUNNY   87  70  56 SW8       30.10R HX  92
JAFFREY NH     SUNNY     84  69  60 S7        30.18R
KEENE NH       SUNNY     83  70  64 SW7       30.13R
BURLINGTON VT  PTSUNNY   82  69  64 SE3       30.11R
MT. WASHINGTON FOG       57  57 100 W24G32      N/A  VSB 1/16


NYZ052-076-130000-
EASTERN NEW YORK

CITY           SKY/WX    TMP DP  RH WIND       PRES   REMARKS
ALBANY         PTSUNNY   84  67  56 NW3       30.12S
NEW YORK CITY  LGT RAIN  81  72  74 S12       30.15R


ANZALL-130000-
MARINE OBSERVATIONS

STATION/POSITION TIME  TEMP    WIND        PRES    VSBY  WAVE
                       AIR SEA DIR/SP/G                  HT/PER
                 (UTC) (F)     (DEG/KT/KT) (MB)    (MI)  (FT/S)
BOSTON BUOY      2250   68 62  200/ 12/ 14 1021.3R         1/ 8
BUZZARDS BAY     2200   75     210/ 18/ 19 1022.5R
NANTUCKET SOUND  2250   76 75  210/ 16/ 17 1022.3R         2/ 3
MASS BAY-STELLWA 2104   65 57  200/  8/  8 1020.7F   3/8   2/ 8
ISLE OF SHOALS   2200   77     190/ 21/ 22 1018.9R
S OF BLOCK IS    2256      73                N/A           5/ 8


......................KEY.........................
  SKY/WX - SKY CONDITION/PRESENT WEATHER
  TMP    - TEMPERATURE IN FAHRENHEIT
  DWPT   - DEWPOINT IN FAHRENHEIT
  RH     - RELATIVE HUMIDITY IN PERCENT
  WIND   - DIRECTION AND SPEED IN MPH
  PRES   - MEAN SEA LEVEL PRESSURE IN INCHES OF HG
  WCI    - WIND CHILL INDEX
  VSB    - VISIBILITY IN MILES
  HX     - HEAT INDEX
  TC     - TEMPERATURE IN CELSIUS
  VRB    - VARIABLE WIND DIRECTION
  N/A    - NOT AVAILABLE